Flag for Canada Weather past 2 weeks in Longueuil, Quebec, Canada

Now
69 °F

Mild.


Feels Like: 69 °F
Forecast: 63 / 79 °F
Wind: 2 mph from Southwest

Location: Mc Tavish

Current Time: Jul 4, 2015 at 11:11:48 PM

Latest Report: Jul 4, 2015 at 10:00 PM


Visibility: N/A

Pressure: 29.92 "Hg

Humidity: 63%

Dew point: 56 °F

Location of LongueuilLocation

Historic Weather in Longueuil — Graph

°F

Longueuil temperature yesterday

Maximum temperature yesterday: 76 °F (at 4:00 PM)
Minimum temperature yesterday: 58 °F (at 6:00 AM)
Average temperature yesterday: 67 °F

Past Weeks' High & Low Weather Summary

 TemperatureHumidityPressure
High79 °F (Jun 22, 6:00 PM)98% (Jul 1, 3:00 PM)30.15 "Hg (Jul 1, 3:00 PM)
Low54 °F (Jun 29, 4:00 AM)27% (Jun 26, 3:00 PM)29.51 "Hg (Jun 23, 3:00 PM)
Average67 °F65%29.88 "Hg
* Reported Jun 19 10:00 PM — Jul 4 10:00 PM, Longueuil, Weather by CustomWeather, © 2015

Note: Actual official high and low records may vary slightly from our data, if they occured in-between our weather recording intervals... More about our weather records

Advertising

Longueuil weather history for previous 24 hours

 ConditionsComfort  
Time TempWeatherWind HumidityBarometerVisibility
10:00 PM
Sat, Jul 4
69 °FMild.2 mph63%29.92 "HgN/A
9:00 PM72 °FMild.3 mph51%29.90 "HgN/A
8:00 PM71 °FMild.2 mph61%29.88 "HgN/A
7:00 PM74 °FMild.3 mph44%29.88 "HgN/A
6:00 PM75 °FMild.3 mph39%29.89 "HgN/A
5:00 PM77 °FMild.3 mph39%29.88 "HgN/A
4:00 PM76 °FMild.5 mph38%29.89 "HgN/A
3:00 PM76 °FMild.3 mph41%29.89 "HgN/A
2:00 PM76 °FMild.5 mph39%29.90 "HgN/A
1:00 PM75 °FMild.3 mph47%29.90 "HgN/A
12:00 PM71 °FMild.2 mph59%29.93 "HgN/A
11:00 AM68 °FMild.3 mph66%29.93 "HgN/A
10:00 AM67 °FMild.3 mph68%29.93 "HgN/A
9:00 AM66 °FMild.2 mph64%29.94 "HgN/A
8:00 AM65 °FMild.1 mph66%29.94 "HgN/A
7:00 AM63 °FMild.3 mph68%29.93 "HgN/A
6:00 AM61 °FCool.5 mph75%29.93 "HgN/A
5:00 AM61 °FCool.3 mph71%29.93 "HgN/A
4:00 AM64 °FMild.2 mph61%29.92 "HgN/A
3:00 AM65 °FMild.6 mph58%29.92 "HgN/A
2:00 AM66 °FMild.8 mph55%29.92 "HgN/A
1:00 AM68 °FMild.6 mph52%29.93 "HgN/A
12:00 AM67 °FMild.5 mph54%29.93 "HgN/A
11:00 PM
Fri, Jul 3
69 °FMild.5 mph51%29.93 "HgN/A
Weather by CustomWeather, © 2015

See weather overviewHow to use our weather pages